Regional Weather Roundup
Issued by NWS Midland/Odessa, TX

Home | Current Version | Previous Version | Text Only | Print | Product List | Glossary On
Versions: 1 2 3 4 5 6 7 8 9 10 11 12 13 14 15 16 17 18 19 20 21 22 23 24 25 26 27 28 29 30 31 32 33 34 35 36 37 38 39 40 41 42 43 44 45 46 47 48 49 50
000
ASUS44 KMAF 211310
RWRMAF
MIDLAND AREA WEATHER ROUNDUP
NATIONAL WEATHER SERVICE MIDLAND TX
700 AM CST TUE FEB 21 2017

...IN SOUTHWEST TEXAS AND SOUTHEAST NEW MEXICO...

CITY           SKY/WX    TMP DP  RH WIND       PRES   REMARKS
ALPINE         CLEAR     49  26  40 SW8       30.30R
ANDREWS        FAIR      44  26  49 W7        30.15S
ARTESIA        CLOUDY    37  27  65 CALM      30.17S
BIG SPRING     CLEAR     39  29  67 CALM      30.16R
CARLSBAD       CLOUDY    37  25  61 NW3       30.16R
DRYDEN           N/A     51  32  48 W10       30.14R
FORT STOCKTON  CLEAR     49  27  42 SW13      30.17S
GUAD PASS      CLOUDY    43  28  55 W16       30.26R WCI  35
HOBBS          CLEAR     37  25  60 W6        30.16S WCI  33
MARFA          CLOUDY    40  26  57 W7        30.28S WCI  35
MIDLAND AIRPK  CLEAR     45  31  58 W8        30.14S
MIDLAND INTL   CLEAR     48  28  46 NW9       30.14R
ODESSA         CLEAR     46  26  45 NW9       30.15R
PECOS          CLOUDY    48  27  44 CALM      30.17S
PRESIDIO       FAIR      45  26  48 N5        30.28R
SEMINOLE       CLEAR     38  28  66 W8        30.15R WCI  32
SNYDER         CLEAR     41  26  55 N8        30.11R WCI  36
WINK           CLOUDY    36  25  64 N3        30.14S
$$
...OTHER STATIONS IN TEXAS...

CITY           SKY/WX    TMP DP  RH WIND       PRES   REMARKS
ABILENE        CLEAR     44  28  53 NW6       30.09R
AMARILLO       CLOUDY    33  22  63 SW5       30.11R WCI  29
AUSTIN         PTCLDY    56  41  57 NW12      29.98R
BROWNSVILLE    CLEAR     59  56  89 SW7       30.07R
CORPUS CHRISTI PTCLDY    55  48  77 W9        30.01R
DALLAS FTW     PTCLDY    52  47  83 NW10      29.93R
DEL RIO        CLEAR     50  38  63 CALM      30.11R
EL PASO        PTCLDY    40  29  64 E5        30.26R WCI  37
HOUSTON INT    PTCLDY    55  55 100 CALM      29.92F FOG
LUBBOCK        CLOUDY    33  24  69 NW3       30.10F
SAN ANGELO     CLEAR     42  32  67 CALM      30.11R
SAN ANTONIO    PTCLDY    51  38  60 W10       30.03R
WACO           CLEAR     49  44  83 MISG      29.95R
WICHITA FALLS  NOT AVBL
$$
...OTHER LOCATIONS IN NEW MEXICO...

CITY           SKY/WX    TMP DP  RH WIND       PRES   REMARKS
ALAMAGORDO     CLOUDY    36  27  69 SE5       30.26R WCI  32
ALBUQUERQUE    CLOUDY    44  33  65 N9        30.34S WCI  39
CANNON AFB     CLOUDY    38  29  71 W5        30.11R WCI  34
CLOVIS         CLOUDY    34  25  69 W9        30.11S WCI  26
HOLLOMAN AFB   CLOUDY    34  26  74 NW9       30.30R WCI  26
ROSWELL        CLEAR     35  24  64 S5          N/A  WCI  31
RUIDOSO        CLOUDY    45  28  53 NW23G31   30.30F WCI  36
SANTA FE       CLOUDY    39  28  64 N15       30.32R WCI  31
TRUTH OR CONSE CLEAR     44  31  60 N5        30.29R
TUCUMCARI      CLOUDY    34  23  64 W10       30.10R WCI  26
$$



USA.gov is the U.S. government's official web portal to all federal, state and local government web resources and services.